Location: Contre
(49.7477°N, 2.0963°E)
Time: 07:36:04
(UTC+00:00)

Cosmos 2360 Rocket - Visible Passes

Search period start: 24 September 2023 00:00
Search period end: 04 October 2023 00:00
Orbit: 832 x 846 km, 71.0° (Epoch: 23 September)

Date Brightness Start Highest point End Pass type
(mag) Time Alt. Az. Time Alt. Az. Time Alt. Az.
24 Sep 5.1 01:17:45 10° N 01:20:26 13° NNE 01:23:06 10° NE visible
24 Sep 3.4 03:00:41 10° NNW 03:06:04 42° NE 03:11:25 10° ESE visible
24 Sep 2.6 04:44:48 10° NW 04:50:04 40° WSW 04:55:19 10° S visible
24 Sep 3.2 19:39:47 10° SW 19:45:14 49° NW 19:50:45 10° NNE visible
24 Sep 5.0 21:27:35 10° WNW 21:30:42 15° NNW 21:33:49 10° N visible
25 Sep 5.1 01:01:58 10° N 01:04:29 13° NNE 01:07:00 10° NE visible
25 Sep 3.5 02:44:50 10° NNW 02:50:11 40° NE 02:55:29 10° ESE visible
25 Sep 2.5 04:28:54 10° NW 04:34:15 43° WSW 04:39:33 10° S visible
25 Sep 3.1 19:23:52 10° SW 19:29:21 51° NW 19:34:54 10° NNE visible
25 Sep 5.0 21:11:32 10° WNW 21:14:46 15° NNW 21:18:01 10° N visible
26 Sep 5.1 00:46:11 10° N 00:48:32 12° NNE 00:50:54 10° NE visible
26 Sep 3.6 02:29:00 10° NNW 02:34:17 38° NE 02:39:33 10° ESE visible
26 Sep 2.4 04:13:01 10° NW 04:18:24 46° WSW 04:23:46 10° S visible
26 Sep 3.0 19:07:56 10° SW 19:13:28 54° NW 19:19:03 10° NNE visible
26 Sep 5.0 20:55:27 10° WNW 20:58:49 16° NNW 21:02:13 10° N visible
27 Sep 5.1 00:30:24 10° N 00:32:35 12° NNE 00:34:46 10° NE visible
27 Sep 3.6 02:13:09 10° NNW 02:18:23 36° NE 02:23:36 10° ESE visible
27 Sep 2.3 03:57:06 10° NW 04:02:34 48° WSW 04:07:59 10° S visible
27 Sep 2.9 18:52:02 10° SW 18:57:36 57° NW 19:03:12 10° NNE visible
27 Sep 4.9 20:39:24 10° WNW 20:42:53 16° NNW 20:46:24 10° N visible
28 Sep 5.1 00:14:38 10° N 00:16:38 12° NNE 00:18:38 10° NE visible
28 Sep 3.7 01:57:19 10° NNW 02:02:29 34° NE 02:07:38 10° ESE visible
28 Sep 2.3 03:41:14 10° NW 03:46:43 51° WSW 03:52:11 10° S visible
28 Sep 2.8 18:36:08 10° SW 18:41:42 60° WNW 18:47:21 10° NNE visible
28 Sep 4.9 20:23:20 10° WNW 20:26:57 17° NNW 20:30:35 10° N visible
28 Sep 5.1 23:58:53 10° N 00:00:41 11° NNE 00:02:28 10° NE visible
29 Sep 3.7 01:41:28 10° NNW 01:46:36 33° NE 01:51:41 10° ESE visible
29 Sep 2.2 03:25:21 10° NW 03:30:53 55° WSW 03:36:23 10° S visible
29 Sep 2.8 18:20:14 10° SW 18:25:50 64° WNW 18:31:30 10° NNE visible
29 Sep 4.8 20:07:17 10° WNW 20:11:01 18° NW 20:14:46 10° N visible
29 Sep 5.1 23:43:09 10° N 23:44:44 11° NNE 23:46:18 10° NE visible
30 Sep 3.8 01:25:38 10° NNW 01:30:27 31° NE 01:30:27 31° NE visible
30 Sep 3.5 03:09:27 10° NW 03:21:27 - S 03:11:59 27° NW visible
30 Sep 2.7 18:04:21 10° SW 18:09:58 67° WNW 18:15:39 10° NNE visible
30 Sep 4.8 19:51:15 10° WNW 19:55:05 18° NW 19:58:57 10° N visible
30 Sep 5.1 23:27:26 10° N 23:28:46 11° NNE 23:30:06 10° NE visible
01 Oct 4.2 01:09:48 10° NNW 01:12:50 24° NNE 01:12:50 24° NNE visible
01 Oct 4.3 02:53:35 10° NW 02:54:28 15° NW 02:54:28 15° NW visible
01 Oct 4.7 19:35:12 10° W 19:39:09 19° NW 19:43:07 10° N visible
01 Oct 5.0 23:11:46 10° N 23:12:48 10° NNE 23:13:51 10° NNE visible
02 Oct 4.4 00:53:57 10° NNW 00:56:06 20° N 00:56:06 20° N visible
02 Oct 4.6 02:37:42 10° NNW 02:37:47 10° NNW 02:37:47 10° NNW visible
02 Oct 4.7 19:19:10 10° W 19:23:13 20° NW 19:27:18 10° N visible
02 Oct 5.0 22:56:12 10° NNE 22:56:51 10° NNE 22:57:29 10° NNE visible
03 Oct 4.6 00:38:08 10° NNW 00:39:43 17° N 00:39:43 17° N visible
03 Oct 4.6 19:03:09 10° W 19:07:18 20° NW 19:11:28 10° N visible
